This is the latest recevied weather packets stored in our database for station/object AE5EW. If no packets are shown the sender has not sent any weather packets the latest 10 day(s).
| Time | Temp. | Humidity | Pressure | Rain* | Wind** | Luminosity | Snow |
|---|---|---|---|---|---|---|---|
| 1787766485 | 34.44° C | 54% | 1017.5 hPa | 0 mm | - | - | - |
| 1787766180 | 33.89° C | 49% | 1017.6 hPa | 0 mm | - | - | - |
| 1787765875 | 33.33° C | 58% | 1017.5 hPa | 0 mm | - | - | - |
| 1787765572 | 33.89° C | 58% | 1017.5 hPa | 0 mm | - | - | - |
| 1787765271 | 33.33° C | 59% | 1017.9 hPa | 0 mm | - | - | - |
| 1787764971 | 33.33° C | 60% | 1017.7 hPa | 0 mm | - | - | - |
| 1787764667 | 32.78° C | 59% | 1017.8 hPa | 0 mm | - | - | - |
| 1787764366 | 33.33° C | 62% | 1018.1 hPa | 0 mm | - | - | - |
| 1787764063 | 32.78° C | 63% | 1017.9 hPa | 0 mm | - | - | - |
| 1787763758 | 33.33° C | 60% | 1018 hPa | 0 mm | - | - | - |
| 1787763453 | 33.33° C | 63% | 1018 hPa | 0 mm | - | - | - |
| 1787763153 | 32.22° C | 66% | 1018.1 hPa | 0 mm | - | - | - |
| 1787762849 | 32.78° C | 66% | 1018.1 hPa | 0 mm | - | - | - |
| 1787762547 | 32.78° C | 66% | 1018.1 hPa | 0 mm | - | - | - |
| 1787762244 | 32.22° C | 68% | 1018.3 hPa | 0 mm | - | - | - |
| 1787761940 | 31.67° C | 69% | 1018.2 hPa | 0 mm | - | - | - |
| 1787761635 | 32.22° C | 70% | 1018.1 hPa | 0 mm | - | - | - |
| 1787761330 | 31.67° C | 71% | 1018.2 hPa | 0 mm | - | - | - |
| 1787761029 | 31.11° C | 72% | 1018.2 hPa | 0 mm | - | - | - |
| 1787760727 | 31.67° C | 73% | 1018.4 hPa | 0 mm | - | - | - |
| 1787760422 | 31.67° C | 70% | 1018.3 hPa | 0 mm | - | - | - |
| 1787760117 | 31.67° C | 67% | 1018.3 hPa | 0 mm | - | - | - |
| 1787759814 | 31.11° C | 70% | 1018.3 hPa | 0 mm | - | - | - |
| 1787759509 | 31.67° C | 69% | 1018.6 hPa | 0 mm | - | - | - |
| 1787759205 | 31.11° C | 71% | 1018.6 hPa | 0 mm | - | - | - |
* Rain latest hour (hover to see other rain measurements)
** Current wind speed in m/s (hover to see current wind gust speed)